Regional Weather Roundup
Issued by NWS

Home | Current Version | Previous Version | Graphics & Text | Print | Product List | Glossary On
Versions: 1 2 3 4 5 6 7 8 9 10 11 12 13 14 15 16 17 18 19 20 21 22 23 24 25 26 27
000
ASUS45 KSLC 181210
RWRUT

UTAH REGIONAL WEATHER ROUNDUP
NATIONAL WEATHER SERVICE SALT LAKE CITY UT
500 AM MST MON DEC 18 2017

UTZ001>011-023>025-181300-

NORTHERN UTAH

CITY           SKY/WX    TMP DP  RH WIND       PRES   REMARKS
BRIGHAM CITY   CLOUDY    30  23  76 CALM      30.28S
HILL AFB       CLOUDY    25  19  75 E9        30.24F WCI  16
LOGAN          CLOUDY    30  23  75 SW3       30.25F
OGDEN          CLOUDY    25  19  78 S7        30.25F WCI  17
SALT LAKE CITY MOCLDY    30  23  75 S6        30.26F WCI  24
TOOELE VALLEY  MOCLDY    25  19  80 CALM      30.26F
WENDOVER       MOCLDY    21  15  78 CALM      30.26F
HEBER CITY       N/A     16  12  86 CALM      30.23S
WEST JORDAN    MOCLDY    25  24  95 S6        30.26F WCI  18

$$

UTZ011>015-024>027-181300-

CENTRAL/NORTHEAST UTAH

CITY           SKY/WX    TMP DP  RH WIND       PRES   REMARKS
PROVO AIRPORT  PTCLDY    19  16  88 CALM      30.29F
MOAB/CANYONLAN MOCLDY    16   8  71 W3        30.18F
DELTA          MOCLDY    16  14  93 E5        30.26S WCI   9
PRICE          PTCLDY    21  13  71 CALM      30.15S
ROOSEVELT      CLOUDY    19  12  73 CALM      30.23R
VERNAL         CLOUDY    19  13  77 CALM      30.21R

$$

UTZ013>016-019>022-027-181300-

SOUTHERN UTAH

CITY           SKY/WX    TMP DP  RH WIND       PRES   REMARKS
BRYCE CANYON   PTCLDY     6   2  83 W3        30.19S
CEDAR CITY     PTCLDY    11   9  92 CALM      30.20F
MILFORD        MOCLDY    11   8  88 S5        30.24F WCI   3
ST GEORGE      MOSUNNY   30  18  60 SE9       30.23R WCI  22
HANKSVILLE     CLOUDY    12   3  67 CALM      30.23F
BLANDING         N/A     19   6  55 CALM      30.22S

$$

REGIONAL REPORTS     COLORADO/ARIZONA

CITY           SKY/WX    TMP DP  RH WIND       PRES   REMARKS
CRAIG, CO      CLOUDY    19  14  81 CALM      30.17S
GRAND JUNCTION CLOUDY    20  11  68 E6        30.20S WCI  12
RIFLE, CO      CLOUDY    15   8  73 S3        30.22F
MONTROSE, CO   CLOUDY    17   7  64 S10       30.23F WCI   5
CORTEZ, CO     CLOUDY    13   3  64 E5        30.16S WCI   5
COLORADO CITY    N/A     12   9  85 CALM      30.21R
PAGE, AZ       PTCLDY    30  16  56 NW6       30.17F WCI  24
GRAND CANYON   MOCLDY    10   0  63 CALM      30.16S
KINGMAN, AZ    CLEAR     32  16  51 E9        30.15S WCI  24
FLAGSTAFF, AZ  PTCLDY    14   6  70 N6        30.12S WCI   5

$$

REGIONAL REPORTS    NEVADA/IDAHO/WYOMING

CITY           SKY/WX    TMP DP  RH WIND       PRES   REMARKS
LAS VEGAS, NV  PTCLDY    40  16  37 S5        30.17F
ELY, NY        PTCLDY    10   6  84 S14       30.22S WCI  -6
ELKO, NV       PTCLDY    17  13  84 CALM      30.26R
POCATELLO, ID  CLOUDY    33  21  61 SW10      30.20S WCI  25
BURLEY, ID     CLOUDY    31  20  63 SW6       30.18F WCI  25
FORT BRIDGER,  CLOUDY    26  11  53 W9        30.17R WCI  16
EVANSTON, WY   CLOUDY    19  13  77 SW10      30.15F WCI   7
ROCK SPRINGS,  CLOUDY    24  10  55 W25       30.11S WCI   8

$$




USA.gov is the U.S. government's official web portal to all federal, state and local government web resources and services.